Flag for Australia Weather past 2 weeks in Ballarat, Victoria, Australia

Now
56 °F

Cool.


Feels Like: 56 °F
Forecast: 44 / 57 °F
Wind: 3 mph from East

Location: Sheoaks Aws

Current Time: Aug 22, 2014 at 7:58:57 PM

Latest Report: Aug 22, 2014 at 6:00 PM


Visibility: N/A

Pressure: 30.36 "Hg

Humidity: 67%

Dew point: 45 °F

Location of BallaratLocation

Historic Weather in Ballarat — Graph

°F

Ballarat temperature yesterday

Maximum temperature yesterday: 55 °F (at 3:00 PM)
Minimum temperature yesterday: 33 °F (at 3:00 AM)
Average temperature yesterday: 43 °F

Past Weeks' High & Low Weather Summary

 TemperatureHumidityPressure
High60 °F (Aug 22, 2:00 PM)100% (Aug 16, 9:00 AM)30.62 "Hg (Aug 16, 9:00 AM)
Low33 °F (Aug 21, 3:00 AM)44% (Aug 15, 3:00 PM)30.04 "Hg (Aug 17, 2:00 PM)
Average46 °F85%30.35 "Hg
* Reported Aug 7 6:00 PM — Aug 22 6:00 PM, Ballarat, Weather by CustomWeather, © 2014

Note: Actual official high and low records may vary slightly from our data, if they occured in-between our weather recording intervals... More about our weather records

Advertising

Ballarat weather history for previous 24 hours

 ConditionsComfort  
Time TempWeatherWind HumidityBarometerVisibility
6:00 PM
Aug 22
56 °FCool.3 mph67%30.36 "HgN/A
5:00 PM60 °FCool.7 mph60%30.35 "HgN/A
3:00 PM60 °FRefreshingly cool.5 mph57%30.36 "HgN/A
2:00 PM60 °FCool.5 mph68%30.37 "HgN/A
12:00 PM60 °FRefreshingly cool.7 mph53%30.41 "HgN/A
11:00 AM60 °FRefreshingly cool.13 mph57%30.43 "HgN/A
9:00 AM52 °FCool.8 mph76%30.44 "HgN/A
8:00 AM44 °FQuite cool.8 mph86%30.43 "HgN/A
6:00 AM41 °FQuite cool.8 mph90%30.41 "HgN/A
5:00 AM41 °FQuite cool.7 mph91%30.40 "HgN/A
3:00 AM41 °FQuite cool.6 mph93%30.39 "HgN/A
2:00 AM42 °FQuite cool.6 mph92%30.40 "HgN/A
12:00 AM42 °FQuite cool.6 mph92%30.40 "HgN/A
11:00 PM
Aug 21
42 °FQuite cool.6 mph93%30.40 "HgN/A
9:00 PM43 °FQuite cool.3 mph98%30.39 "HgN/A
8:00 PM45 °FCool.3 mph96%30.38 "HgN/A
Weather by CustomWeather, © 2014

See weather overviewHow to use our weather pages